Simultaneous Nadir Overpasses (SNOs) Predictions

Prediction of SNOs between AQUA and METOP-C Satellite Orbit:

Table of predicted SNOs for the next 14.0 days since TLE Epoch: 10/11/2019
Index Date (AQUA) Time (AQUA) Lat,Lon (AQUA) SZA (AQUA ) Date (METOP-C) Time (METOP-C) Lat,Lon (METOP-C) SZA (METOP-C ) Distance(km) Time Diff (sec)
1 10/14/2019 05:37:26 -73.75, -89.98 98.29 10/14/2019 05:36:34 -73.73, -90.04 98.30 2.55 52
2 10/14/2019 06:26:54 73.80, 77.55 81.78 10/14/2019 06:27:11 73.83, 77.52 81.81 3.44 17
3 10/14/2019 07:16:34 -74.52,-116.47 97.47 10/14/2019 07:17:40 -74.50,-113.48 97.52 88.78 66
4 10/17/2019 01:11:42 -73.79, -23.63 97.21 10/17/2019 01:10:55 -73.77, -23.54 97.22 3.37 47
5 10/17/2019 02:01:10 73.85, 143.88 82.87 10/17/2019 02:01:33 73.82, 143.91 82.84 3.21 23
6 10/19/2019 20:45:57 -73.79, 42.81 96.19 10/19/2019 20:45:17 -73.77, 42.85 96.21 2.46 40
7 10/19/2019 21:35:25 73.85,-149.69 83.89 10/19/2019 21:35:54 73.86,-149.58 83.90 3.73 29
8 10/22/2019 16:20:11 -73.79, 109.25 95.19 10/22/2019 16:19:38 -73.76, 109.23 95.22 3.50 33
9 10/22/2019 17:09:39 73.86, -83.27 84.90 10/22/2019 17:10:15 73.86, -83.19 84.90 2.54 36
10 10/25/2019 11:54:26 -73.79, 175.67 94.20 10/25/2019 11:53:59 -73.79, 175.73 94.20 2.01 27
11 10/25/2019 12:43:54 73.87, -16.86 85.89 10/25/2019 12:44:37 73.85, -16.80 85.87 2.97 43




NCC Satellite Simultaneous Nadir Overpasses (SNOs) Prediction Service
